Time,TemperatureF,DewpointF,PressureIn,WindDirection,WindDirectionDegrees,WindSpeedMPH,WindSpeedGustMPH,Humidity,HourlyPrecipIn,Conditions,Clouds,dailyrainin,SolarRadiationWatts/m^2,SoftwareType,DateUTC
2013-10-17 11:32:00,73.2,45.0,30.10,NNW,335,2.0,3.0,37,0.00,,,0.00,589,weatherlink.com 1.10,2013-10-17 18:32:00,
2013-10-17 11:45:00,74.4,43.0,30.09,ENE,75,0.0,5.0,32,0.00,,,0.00,606,weatherlink.com 1.10,2013-10-17 18:45:00,
2013-10-17 12:15:00,79.0,41.0,30.08,North,9,4.0,4.0,26,0.00,,,0.00,633,weatherlink.com 1.10,2013-10-17 19:15:00,
2013-10-17 12:30:00,79.3,41.0,30.08,NNW,329,0.0,5.0,25,0.00,,,0.00,647,weatherlink.com 1.10,2013-10-17 19:30:00,
2013-10-17 12:45:00,80.8,40.0,30.07,WNW,300,0.0,2.0,23,0.00,,,0.00,654,weatherlink.com 1.10,2013-10-17 19:45:00,
2013-10-17 13:00:00,81.5,38.0,30.06,North,349,0.0,3.0,21,0.00,,,0.00,654,weatherlink.com 1.10,2013-10-17 20:00:00,
2013-10-17 13:16:00,81.7,36.0,30.05,North,350,0.0,3.0,19,0.00,,,0.00,649,weatherlink.com 1.10,2013-10-17 20:16:00,
2013-10-17 13:31:00,82.9,35.0,30.04,North,355,2.0,3.0,18,0.00,,,0.00,645,weatherlink.com 1.10,2013-10-17 20:31:00,
2013-10-17 13:46:00,81.9,36.0,30.04,NNW,339,0.0,5.0,19,0.00,,,0.00,638,weatherlink.com 1.10,2013-10-17 20:46:00,
2013-10-17 14:01:00,82.8,38.0,30.03,NNE,24,1.0,4.0,20,0.00,,,0.00,621,weatherlink.com 1.10,2013-10-17 21:01:00,
2013-10-17 14:16:00,82.4,37.0,30.03,SSW,210,2.0,5.0,20,0.00,,,0.00,606,weatherlink.com 1.10,2013-10-17 21:16:00,
2013-10-17 14:31:00,81.9,37.0,30.02,WSW,237,4.0,7.0,20,0.00,,,0.00,587,weatherlink.com 1.10,2013-10-17 21:31:00,
2013-10-17 14:46:00,80.5,37.0,30.02,SW,236,2.0,8.0,21,0.00,,,0.00,568,weatherlink.com 1.10,2013-10-17 21:46:00,
2013-10-17 15:01:00,79.9,35.0,30.02,SW,233,5.0,8.0,20,0.00,,,0.00,543,weatherlink.com 1.10,2013-10-17 22:01:00,
2013-10-17 15:16:00,78.8,33.0,30.01,SW,227,5.0,10.0,19,0.00,,,0.00,515,weatherlink.com 1.10,2013-10-17 22:16:00,
2013-10-17 15:31:00,79.2,36.0,30.01,North,6,0.0,6.0,21,0.00,,,0.00,482,weatherlink.com 1.10,2013-10-17 22:31:00,
2013-10-17 15:46:00,79.5,36.0,30.01,SW,232,6.0,7.0,21,0.00,,,0.00,445,weatherlink.com 1.10,2013-10-17 22:46:00,
2013-10-17 16:01:00,78.9,33.0,30.01,SSW,212,5.0,8.0,19,0.00,,,0.00,408,weatherlink.com 1.10,2013-10-17 23:01:00,
2013-10-17 16:16:00,76.6,34.0,30.00,SSW,199,1.0,9.0,21,0.00,,,0.00,367,weatherlink.com 1.10,2013-10-17 23:16:00,
2013-10-17 16:46:00,73.9,35.0,30.00,SSW,201,4.0,9.0,24,0.00,,,0.00,281,weatherlink.com 1.10,2013-10-17 23:46:00,
2013-10-17 17:01:00,73.2,37.0,30.00,WSW,254,0.0,6.0,27,0.00,,,0.00,230,weatherlink.com 1.10,2013-10-18 00:01:00,
2013-10-17 17:16:00,71.6,37.0,30.00,SW,224,7.0,10.0,28,0.00,,,0.00,176,weatherlink.com 1.10,2013-10-18 00:16:00,
2013-10-17 17:31:00,70.2,40.0,30.00,SSW,213,0.0,8.0,33,0.00,,,0.00,120,weatherlink.com 1.10,2013-10-18 00:31:00,
2013-10-17 17:46:00,67.6,44.0,30.00,SW,223,7.0,13.0,43,0.00,,,0.00,28,weatherlink.com 1.10,2013-10-18 00:46:00,
2013-10-17 18:01:00,66.0,43.0,29.99,SSW,201,1.0,11.0,43,0.00,,,0.00,23,weatherlink.com 1.10,2013-10-18 01:01:00,
2013-10-17 18:16:00,65.4,42.0,30.00,SW,218,8.0,12.0,42,0.00,,,0.00,12,weatherlink.com 1.10,2013-10-18 01:16:00,
2013-10-17 18:31:00,65.0,40.0,30.00,SSW,195,1.0,14.0,40,0.00,,,0.00,5,weatherlink.com 1.10,2013-10-18 01:31:00,
2013-10-17 18:46:00,64.7,38.0,30.00,SSW,204,4.0,10.0,38,0.00,,,0.00,0,weatherlink.com 1.10,2013-10-18 01:46:00,
2013-10-17 19:01:00,64.9,39.0,30.00,SSW,213,4.0,8.0,38,0.00,,,0.00,0,weatherlink.com 1.10,2013-10-18 02:01:00,
2013-10-17 19:16:00,64.7,41.0,30.00,West,266,0.0,7.0,42,0.00,,,0.00,0,weatherlink.com 1.10,2013-10-18 02:16:00,
2013-10-17 19:31:00,63.6,43.0,30.00,North,354,3.0,8.0,47,0.00,,,0.00,0,weatherlink.com 1.10,2013-10-18 02:31:00,
2013-10-17 19:46:00,63.1,44.0,30.01,SW,219,3.0,6.0,51,0.00,,,0.00,0,weatherlink.com 1.10,2013-10-18 02:46:00,
2013-10-17 20:01:00,62.7,45.0,30.01,North,3,4.0,8.0,53,0.00,,,0.00,0,weatherlink.com 1.10,2013-10-18 03:01:00,
2013-10-17 20:16:00,62.2,46.0,30.01,NNW,343,0.0,6.0,55,0.00,,,0.00,0,weatherlink.com 1.10,2013-10-18 03:16:00,
2013-10-17 20:31:00,61.9,46.0,30.01,NW,326,1.0,9.0,56,0.00,,,0.00,0,weatherlink.com 1.10,2013-10-18 03:31:00,
2013-10-17 20:46:00,61.1,47.0,30.00,NNW,337,5.0,6.0,60,0.00,,,0.00,0,weatherlink.com 1.10,2013-10-18 03:46:00,
2013-10-17 21:01:00,60.3,47.0,30.01,NNW,337,2.0,6.0,63,0.00,,,0.00,0,weatherlink.com 1.10,2013-10-18 04:01:00,
2013-10-17 21:16:00,59.4,48.0,30.01,North,356,1.0,5.0,67,0.00,,,0.00,0,weatherlink.com 1.10,2013-10-18 04:16:00,
2013-10-17 21:31:00,58.6,49.0,30.01,NE,35,4.0,9.0,70,0.00,,,0.00,0,weatherlink.com 1.10,2013-10-18 04:31:00,
2013-10-17 21:46:00,57.9,49.0,30.01,NNE,12,4.0,7.0,73,0.00,,,0.00,0,weatherlink.com 1.10,2013-10-18 04:46:00,
2013-10-17 22:02:00,57.2,50.0,30.02,NNW,341,0.0,10.0,76,0.00,,,0.00,0,weatherlink.com 1.10,2013-10-18 05:02:00,
2013-10-17 22:16:00,56.5,50.0,30.02,NNW,327,3.0,7.0,78,0.00,,,0.00,0,weatherlink.com 1.10,2013-10-18 05:16:00,
2013-10-17 22:31:00,56.0,50.0,30.02,SSW,199,1.0,7.0,80,0.00,,,0.00,0,weatherlink.com 1.10,2013-10-18 05:31:00,
2013-10-17 22:46:00,55.8,50.0,30.02,South,189,2.0,9.0,81,0.00,,,0.00,0,weatherlink.com 1.10,2013-10-18 05:46:00,
2013-10-17 23:01:00,55.4,50.0,30.02,NW,324,3.0,8.0,81,0.00,,,0.00,0,weatherlink.com 1.10,2013-10-18 06:01:00,
2013-10-17 23:16:00,55.1,50.0,30.02,NNW,343,4.0,9.0,83,0.00,,,0.00,0,weatherlink.com 1.10,2013-10-18 06:16:00,
2013-10-17 23:31:00,54.7,50.0,30.02,SW,229,1.0,8.0,84,0.00,,,0.00,0,weatherlink.com 1.10,2013-10-18 06:31:00,
2013-10-17 23:46:00,54.4,50.0,30.02,NW,325,3.0,7.0,84,0.00,,,0.00,0,weatherlink.com 1.10,2013-10-18 06:46:00,